This is the latest recevied weather packets stored in our database for station/object WB3EGK. If no packets are shown the sender has not sent any weather packets the latest 10 day(s).
| Time | Temp. | Humidity | Pressure | Rain* | Wind** | Luminosity | Snow |
|---|---|---|---|---|---|---|---|
| 1777636768 | 4.44° C | 1% | 1010.5 hPa | 0 mm | - | 8 W/m² | - |
| 1777636465 | 3.89° C | 1% | 1010.2 hPa | 0 mm | - | 17 W/m² | - |
| 1777636161 | 3.89° C | 1% | 1010.4 hPa | 0 mm | - | 27 W/m² | - |
| 1777635856 | 3.89° C | 1% | 1010.6 hPa | 0 mm | - | 11 W/m² | - |
| 1777635552 | 3.89° C | 1% | 1010.4 hPa | 0 mm | - | 8 W/m² | - |
| 1777635249 | 3.89° C | 1% | 1010.6 hPa | 0 mm | - | 12 W/m² | - |
| 1777634946 | 3.89° C | 1% | 1010.4 hPa | 0 mm | - | 12 W/m² | - |
| 1777634643 | 3.89° C | 1% | 1010.4 hPa | 0 mm | - | 16 W/m² | - |
| 1777634340 | 3.89° C | 1% | 1010.5 hPa | 0 mm | - | 10 W/m² | - |
| 1777634036 | 3.89° C | 1% | 1010.5 hPa | 0 mm | - | 10 W/m² | - |
| 1777633732 | 3.89° C | 1% | 1010.4 hPa | 0 mm | - | 10 W/m² | - |
| 1777633431 | 3.89° C | 1% | 1010.5 hPa | 0 mm | - | 10 W/m² | - |
| 1777633129 | 3.89° C | 1% | 1010.4 hPa | 0 mm | - | 4 W/m² | - |
| 1777632824 | 3.89° C | 1% | 1010.2 hPa | 0 mm | - | 8 W/m² | - |
| 1777632520 | 3.33° C | 1% | 1010.5 hPa | 0 mm | - | 12 W/m² | - |
| 1777632219 | 3.33° C | 1% | 1010.5 hPa | 0 mm | - | 6 W/m² | - |
| 1777631915 | 3.33° C | 1% | 1010.7 hPa | 0 mm | - | 0 W/m² | - |
| 1777631614 | 3.33° C | 1% | 1010.7 hPa | 0 mm | - | 0 W/m² | - |
| 1777631310 | 3.33° C | 1% | 1010.9 hPa | 0 mm | - | 0 W/m² | - |
| 1777631007 | 3.33° C | 1% | 1010.7 hPa | 0 mm | - | 0 W/m² | - |
| 1777630703 | 3.33° C | 1% | 1010.7 hPa | 0 mm | - | 0 W/m² | - |
| 1777630400 | 2.78° C | 1% | 1010.7 hPa | 0 mm | - | 0 W/m² | - |
| 1777630098 | 2.78° C | 1% | 1010.5 hPa | 0 mm | - | 0 W/m² | - |
| 1777629795 | 2.78° C | 1% | 1010.3 hPa | 0 mm | - | 0 W/m² | - |
| 1777629492 | 2.78° C | 1% | 1010.3 hPa | 0 mm | - | 0 W/m² | - |
* Rain latest hour (hover to see other rain measurements)
** Current wind speed in m/s (hover to see current wind gust speed)